IW7DVM-13 Weather Reports


Display with metric or nautical units.
time (UTC)temp
F
wind
direction
speed
MPH
gust
MPH
rain 1hr
in
rain 24hr
in
rain mn
in
humidity
%
barometer
mb
20260503212003 61 22 1.0 2.0 0.00 0.00 0.00 70 1013.3
20260503211503 62 22 1.0 4.0 0.00 0.00 0.00 70 1013.3
20260503211003 62 7 1.0 4.0 0.00 0.00 0.00 70 1013.3
20260503210503 63 45 0.0 1.0 0.00 0.00 0.00 70 1013.3
20260503210003 63 195 1.0 3.0 0.00 0.00 0.00 70 1013.2
20260503205503 63 189 1.0 4.0 0.00 0.00 0.00 70 1013.1
20260503205003 63 215 0.0 4.0 0.00 0.00 0.00 70 1013.1
20260503204503 62 227 0.0 4.0 0.00 0.00 0.00 69 1013.0
20260503204003 62 45 0.0 4.0 0.00 0.00 0.00 69 1013.2
20260503203503 62 0 0.0 0.0 0.00 0.00 0.00 69 1013.1
20260503203003 62 0 0.0 0.0 0.00 0.00 0.00 69 1013.0
20260503202503 62 0 0.0 0.0 0.00 0.00 0.00 69 1013.1
20260503202003 62 0 0.0 0.0 0.00 0.00 0.00 69 1013.1
20260503201503 63 135 0.0 1.0 0.00 0.00 0.00 69 1013.2
20260503201003 63 0 0.0 0.0 0.00 0.00 0.00 69 1013.1
20260503200503 63 0 0.0 0.0 0.00 0.00 0.00 69 1013.2
20260503200003 63 191 0.0 2.0 0.00 0.00 0.00 69 1013.2
20260503195503 63 0 0.0 0.0 0.00 0.00 0.00 69 1013.2
20260503195003 63 157 0.0 1.0 0.00 0.00 0.00 69 1013.1
20260503194503 63 188 0.0 2.0 0.00 0.00 0.00 69 1013.1
20260503194003 63 181 0.0 3.0 0.00 0.00 0.00 69 1012.9
20260503193503 64 199 0.0 3.0 0.00 0.00 0.00 68 1013.0
20260503193003 64 188 1.0 5.0 0.00 0.00 0.00 68 1012.9
20260503192503 64 192 1.0 6.0 0.00 0.00 0.00 68 1012.8
20260503192003 64 202 1.0 4.0 0.00 0.00 0.00 68 1012.9
20260503191503 64 203 1.0 5.0 0.00 0.00 0.00 67 1012.9
20260503191003 64 220 1.0 4.0 0.00 0.00 0.00 67 1012.6
20260503190503 64 182 1.0 5.0 0.00 0.00 0.00 67 1012.6
20260503190003 64 200 1.0 4.0 0.00 0.00 0.00 67 1012.6
20260503185503 64 205 1.0 4.0 0.00 0.00 0.00 66 1012.5
20260503185003 64 214 0.0 4.0 0.00 0.00 0.00 66 1012.6
20260503184503 64 210 1.0 5.0 0.00 0.00 0.00 66 1012.6
20260503184003 64 189 0.0 3.0 0.00 0.00 0.00 66 1012.5
20260503183503 64 192 2.0 9.0 0.00 0.00 0.00 66 1012.3
20260503183003 64 204 4.0 9.0 0.00 0.00 0.00 66 1012.4
20260503182503 65 186 1.0 5.0 0.00 0.00 0.00 65 1012.2
20260503182003 65 200 1.0 6.0 0.00 0.00 0.00 64 1012.3
20260503181504 65 190 1.0 4.0 0.00 0.00 0.00 63 1012.3
20260503181003 65 195 3.0 8.0 0.00 0.00 0.00 63 1012.3
20260503180503 65 199 2.0 9.0 0.00 0.00 0.00 61 1012.2
20260503180003 66 195 3.0 7.0 0.00 0.00 0.00 59 1012.1
20260503175503 67 207 3.0 12.0 0.00 0.00 0.00 56 1012.0
20260503175003 69 190 2.0 8.0 0.00 0.00 0.00 47 1011.9
20260503174503 71 30 2.0 4.0 0.00 0.00 0.00 40 1011.8
20260503174003 71 14 2.0 4.0 0.00 0.00 0.00 39 1011.9
20260503173503 72 13 3.0 6.0 0.00 0.00 0.00 38 1011.8
20260503173003 72 7 3.0 7.0 0.00 0.00 0.00 38 1011.8
20260503172504 73 16 3.0 8.0 0.00 0.00 0.00 37 1011.7
20260503172003 73 16 4.0 9.0 0.00 0.00 0.00 37 1011.8
20260503171503 74 18 3.0 7.0 0.00 0.00 0.00 36 1011.8
20260503171003 74 17 4.0 9.0 0.00 0.00 0.00 35 1011.7
20260503170503 74 10 4.0 9.0 0.00 0.00 0.00 35 1011.7
20260503151003 77 14 9.0 16.0 0.00 0.00 0.00 34 1011.6
20260503150503 77 8 10.0 17.0 0.00 0.00 0.00 34 1011.7
20260503131003 77 360 8.0 16.0 0.00 0.00 0.00 36 1012.1
20260503130503 77 10 10.0 19.0 0.00 0.00 0.00 35 1012.1
20260503110503 76 18 12.0 20.0 0.00 0.00 0.00 34 1012.2
20260503090503 74 316 6.0 14.0 0.00 0.00 0.00 33 1012.6
20260503081503 72 304 3.0 9.0 0.00 0.00 0.00 41 1012.8
20260503081003 71 332 4.0 12.0 0.00 0.00 0.00 42 1012.7
20260503080503 70 324 3.0 13.0 0.00 0.00 0.00 46 1012.9
20260503072503 67 237 4.0 14.0 0.00 0.00 0.00 51 1013.0
20260503072003 66 251 3.0 10.0 0.00 0.00 0.00 50 1012.9
20260503071503 66 245 3.0 10.0 0.00 0.00 0.00 50 1013.0
20260503071003 66 247 4.0 11.0 0.00 0.00 0.00 50 1013.0
20260503070503 66 263 4.0 11.0 0.00 0.00 0.00 49 1013.0
20260503055003 60 271 3.0 10.0 0.00 0.00 0.00 53 1013.1
20260503054503 60 280 4.0 10.0 0.00 0.00 0.00 53 1013.1
20260503053503 60 272 2.0 7.0 0.00 0.00 0.00 54 1013.0
20260503053003 59 269 4.0 11.0 0.00 0.00 0.00 54 1013.0
20260503052503 59 268 3.0 6.0 0.00 0.00 0.00 55 1013.0
20260503052003 59 276 3.0 7.0 0.00 0.00 0.00 55 1012.8
20260503051503 59 270 3.0 8.0 0.00 0.00 0.00 55 1012.9
20260503051003 59 270 3.0 7.0 0.00 0.00 0.00 55 1012.9
20260503050503 58 273 4.0 10.0 0.00 0.00 0.00 55 1012.8
20260503050003 58 276 4.0 11.0 0.00 0.00 0.00 56 1012.8
20260503045503 58 268 4.0 11.0 0.00 0.00 0.00 56 1012.8
20260503045003 58 274 3.0 8.0 0.00 0.00 0.00 56 1012.9
20260503044503 57 271 3.0 11.0 0.00 0.00 0.00 56 1013.0
20260503044003 57 272 2.0 5.0 0.00 0.00 0.00 56 1013.0
20260503043503 57 294 2.0 5.0 0.00 0.00 0.00 56 1013.0
20260503043003 57 274 2.0 10.0 0.00 0.00 0.00 56 1012.9
20260503042503 57 281 2.0 7.0 0.00 0.00 0.00 56 1012.9
20260503042003 57 283 1.0 6.0 0.00 0.00 0.00 56 1012.9
20260503041503 56 274 2.0 5.0 0.00 0.00 0.00 56 1012.9
20260503041003 56 272 1.0 5.0 0.00 0.00 0.00 56 1012.9
20260503040503 56 271 3.0 9.0 0.00 0.00 0.00 57 1012.9
20260503040003 56 284 2.0 6.0 0.00 0.00 0.00 57 1012.9
20260503035503 56 273 2.0 5.0 0.00 0.00 0.00 57 1012.9
20260503035003 56 284 1.0 4.0 0.00 0.00 0.00 56 1012.7
20260503034503 56 278 2.0 5.0 0.00 0.00 0.00 56 1012.8
20260503034003 56 260 2.0 6.0 0.00 0.00 0.00 56 1012.8
20260503033503 57 268 4.0 10.0 0.00 0.00 0.00 56 1012.9
20260503033003 57 269 4.0 10.0 0.00 0.00 0.00 57 1012.8
20260503032503 57 277 4.0 10.0 0.00 0.00 0.00 57 1012.7
20260503032003 57 273 4.0 9.0 0.00 0.00 0.00 58 1012.7
20260503031503 56 269 3.0 7.0 0.00 0.00 0.00 58 1012.8
20260503031003 56 254 4.0 9.0 0.00 0.00 0.00 58 1012.9
20260503030503 56 260 5.0 11.0 0.00 0.00 0.00 58 1013.0
20260503030003 56 253 3.0 10.0 0.00 0.00 0.00 58 1013.1
20260503025503 56 264 4.0 9.0 0.00 0.00 0.00 57 1013.2
20260503025003 56 264 3.0 6.0 0.00 0.00 0.00 57 1013.2
20260503024503 56 268 3.0 8.0 0.00 0.00 0.00 57 1013.3
20260503024003 56 260 2.0 6.0 0.00 0.00 0.00 57 1013.3
20260503023503 56 259 3.0 9.0 0.00 0.00 0.00 57 1013.3
20260503023003 56 265 4.0 9.0 0.00 0.00 0.00 58 1013.2
20260503022503 56 266 3.0 11.0 0.00 0.00 0.00 59 1013.2
20260503022003 56 271 2.0 6.0 0.00 0.00 0.00 59 1013.2
20260503021503 56 266 2.0 8.0 0.00 0.00 0.00 60 1013.3
20260503021003 56 271 2.0 6.0 0.00 0.00 0.00 61 1013.3
20260503020503 56 275 2.0 6.0 0.00 0.00 0.00 61 1013.5
20260503020003 56 276 2.0 6.0 0.00 0.00 0.00 61 1013.6
20260503015503 56 269 2.0 8.0 0.00 0.00 0.00 61 1013.6
20260503015003 56 289 1.0 5.0 0.00 0.00 0.00 60 1013.6
20260503014503 56 270 3.0 8.0 0.00 0.00 0.00 60 1013.7
20260503014003 56 271 2.0 6.0 0.00 0.00 0.00 60 1013.7
20260503013503 56 275 1.0 5.0 0.00 0.00 0.00 60 1013.7
20260503013003 56 283 1.0 5.0 0.00 0.00 0.00 60 1013.8
20260503012503 56 271 3.0 11.0 0.00 0.00 0.00 60 1013.8
20260503012003 56 269 3.0 10.0 0.00 0.00 0.00 60 1013.9
20260503011503 56 256 2.0 9.0 0.00 0.00 0.00 60 1013.9
20260503011003 56 274 3.0 10.0 0.00 0.00 0.00 60 1013.9
20260503010503 56 265 4.0 11.0 0.00 0.00 0.00 61 1013.8
20260503010003 56 267 4.0 13.0 0.00 0.00 0.00 61 1013.9
20260503005503 57 271 4.0 10.0 0.00 0.00 0.00 61 1013.9
20260503005003 57 275 5.0 13.0 0.00 0.00 0.00 61 1013.9
20260503004503 56 274 4.0 11.0 0.00 0.00 0.00 61 1014.1
20260503004003 56 281 5.0 11.0 0.00 0.00 0.00 62 1014.1
20260503003503 56 266 5.0 14.0 0.00 0.00 0.00 62 1014.0
20260503003003 57 275 4.0 10.0 0.00 0.00 0.00 62 1014.0
20260503002503 57 279 3.0 9.0 0.00 0.00 0.00 62 1014.0
20260503002003 57 272 4.0 9.0 0.00 0.00 0.00 62 1014.0
20260503001503 57 272 3.0 11.0 0.00 0.00 0.00 63 1013.9
20260503001003 57 273 3.0 9.0 0.00 0.00 0.00 63 1014.2
20260503000503 57 265 2.0 7.0 0.00 0.00 0.00 63 1014.1
20260503000003 57 274 4.0 9.0 0.00 0.00 0.00 63 1014.2
20260502235503 57 273 3.0 11.0 0.00 0.00 0.00 62 1014.1
20260502235003 57 264 3.0 10.0 0.00 0.00 0.00 61 1014.2
20260502234503 58 260 3.0 7.0 0.00 0.00 0.00 61 1014.3
20260502234003 57 270 3.0 11.0 0.00 0.00 0.00 61 1014.3
20260502233503 57 263 3.0 9.0 0.00 0.00 0.00 62 1014.3
20260502233003 57 259 3.0 13.0 0.00 0.00 0.00 61 1014.7
20260502232503 57 256 2.0 8.0 0.00 0.00 0.00 60 1014.7
20260502232003 57 273 2.0 10.0 0.00 0.00 0.00 60 1014.7
20260502231503 57 260 2.0 5.0 0.00 0.00 0.00 60 1015.0
20260502231003 57 268 1.0 6.0 0.00 0.00 0.00 60 1014.8
20260502230503 58 258 1.0 5.0 0.00 0.00 0.00 59 1015.1
20260502230003 58 259 1.0 4.0 0.00 0.00 0.00 59 1015.0
20260502225503 58 247 1.0 5.0 0.00 0.00 0.00 57 1015.2
20260502225003 58 245 1.0 5.0 0.00 0.00 0.00 57 1015.2
20260502224503 58 280 1.0 5.0 0.00 0.00 0.00 57 1015.1
20260502224003 59 265 0.0 3.0 0.00 0.00 0.00 57 1015.3
20260502223503 59 264 1.0 5.0 0.00 0.00 0.00 57 1015.3
20260502223003 59 269 1.0 4.0 0.00 0.00 0.00 56 1015.3
20260502222503 59 256 1.0 6.0 0.00 0.00 0.00 55 1015.4
20260502222003 59 282 2.0 6.0 0.00 0.00 0.00 55 1015.6
20260502221503 59 310 1.0 7.0 0.00 0.00 0.00 55 1015.5
20260502221003 59 324 3.0 9.0 0.00 0.02 0.00 55 1015.6
20260502220503 59 329 3.0 6.0 0.00 0.02 0.00 54 1015.6
20260502220003 59 328 3.0 10.0 0.00 0.02 0.00 54 1015.6
20260502215503 59 338 4.0 8.0 0.00 0.02 0.02 54 1015.6
20260502215003 58 334 3.0 10.0 0.00 0.02 0.02 54 1015.6
20260502214503 58 333 3.0 6.0 0.00 0.02 0.02 54 1015.6
20260502214003 58 343 1.0 5.0 0.00 0.02 0.02 53 1015.5
20260502213503 58 343 2.0 5.0 0.00 0.02 0.02 53 1015.6
20260502213003 58 339 2.0 6.0 0.00 0.02 0.02 53 1015.6
20260502212503 58 345 2.0 5.0 0.00 0.02 0.02 52 1015.5